Location: Vihti�l�
(61.3833°N, 23.0667°E)
Time: 04:01:13
(UTC+00:00)

Cosmos 1408 Rocket - Pass Details

Date: 29 November 2020
Orbit: 600 x 631 km, 82.6° (Epoch: 19 January)

Event Time Altitude Azimuth Distance (km) Brightness Sun altitude
Rises 03:22:24 0° 175° (S) 2,918 7.1 -25.2°
Reaches altitude 10° 03:24:40 10° 170° (S) 2,013 6.3 -24.9°
Maximum altitude 03:28:59 50° 96° (E) 810 4.5 -24.4°
Drops below altitude 10° 03:33:18 10° 21° (NNE) 2,015 6.4 -23.9°
Sets 03:35:34 0° 17° (NNE) 2,921 7.2 -23.6°
